TimeWGST,TemperatureF,Dew PointF,Humidity,Sea Level PressureIn,VisibilityMPH,Wind Direction,Wind SpeedMPH,Gust SpeedMPH,PrecipitationIn,Events,Conditions,WindDirDegrees,DateUTC
12:00 AM,52,47,76,29.88,9,ENE,15.0,,,Rain,Light Rain,60,2014-08-10 02:00:00
12:50 AM,53.6,48.2,82,29.89,6.2,ENE,11.5,-,N/A,Rain,Light Rain,60,2014-08-10 02:50:00
1:00 AM,53,47,73,29.88,17,ENE,11.5,,,Rain,Light Rain,60,2014-08-10 03:00:00
1:50 AM,53.6,48.2,82,29.89,6.2,NE,13.8,-,N/A,Rain,Light Rain,50,2014-08-10 03:50:00
2:00 AM,53,47,74,29.88,12,ENE,16.1,,,Rain,Light Rain,60,2014-08-10 04:00:00
2:50 AM,53.6,46.4,77,29.89,6.2,ENE,15.0,-,N/A,Rain,Light Rain,60,2014-08-10 04:50:00
3:00 AM,53,46,71,29.90,9,ENE,11.5,,,Rain,Light Rain,70,2014-08-10 05:00:00
3:50 AM,51.8,48.2,88,29.92,6.2,NE,5.8,-,N/A,Rain,Light Rain,40,2014-08-10 05:50:00
4:00 AM,52,47,76,29.92,12,NE,8.1,,,Rain,Light Rain,50,2014-08-10 06:00:00
4:50 AM,51.8,48.2,88,29.92,6.2,Variable,3.5,-,N/A,Rain,Light Rain,0,2014-08-10 06:50:00
5:00 AM,51,47,83,29.95,11,NW,10.4,,,Rain,Light Rain,310,2014-08-10 07:00:00
5:50 AM,50.0,46.4,87,29.95,6.2,NW,15.0,-,N/A,Rain,Light Rain Showers,320,2014-08-10 07:50:00
6:00 AM,50,46,82,29.97,31,NW,13.8,,,Rain,Light Rain Showers,310,2014-08-10 08:00:00
6:50 AM,50.0,46.4,87,29.95,6.2,NW,12.7,-,N/A,,Light Drizzle,310,2014-08-10 08:50:00
7:00 AM,50,45,78,29.98,31,West,6.9,,,Rain,Rain,270,2014-08-10 09:00:00
7:50 AM,50.0,46.4,87,29.98,6.2,West,8.1,-,N/A,,Overcast,260,2014-08-10 09:50:00
8:00 AM,50,46,81,30.00,31,West,6.9,,,,Clear,260,2014-08-10 10:00:00
8:50 AM,50.0,46.4,87,30.01,6.2,WSW,9.2,-,N/A,,Mostly Cloudy,240,2014-08-10 10:50:00
9:00 AM,50,47,84,30.01,28,WSW,8.1,,,,Clear,240,2014-08-10 11:00:00
9:50 AM,51.8,46.4,82,30.01,6.2,WSW,8.1,-,N/A,,Mostly Cloudy,240,2014-08-10 11:50:00
10:00 AM,51,47,80,30.02,31,WSW,8.1,,,,Partly Cloudy,240,2014-08-10 12:00:00
10:50 AM,51.8,48.2,88,30.01,6.2,WSW,8.1,-,N/A,,Light Drizzle,250,2014-08-10 12:50:00
11:00 AM,52,47,76,30.03,25,WSW,8.1,,,,Overcast,250,2014-08-10 13:00:00
11:50 AM,53.6,48.2,82,30.01,6.2,WSW,5.8,-,N/A,,Light Drizzle,250,2014-08-10 13:50:00
12:00 PM,53,48,78,30.03,3,WSW,3.5,,,,Mist,240,2014-08-10 14:00:00
12:50 PM,55.4,50.0,82,30.01,6.2,West,4.6,-,N/A,,Mostly Cloudy,280,2014-08-10 14:50:00
1:00 PM,58,49,64,30.03,22,West,3.5,,,,Clear,280,2014-08-10 15:00:00
1:50 PM,57.2,50.0,77,30.01,6.2,SW,6.9,-,N/A,,Light Drizzle,220,2014-08-10 15:50:00
2:00 PM,56,49,72,30.02,6,WSW,5.8,,,,Clear,240,2014-08-10 16:00:00
2:50 PM,57.2,50.0,77,30.01,6.2,WSW,5.8,-,N/A,,Mostly Cloudy,240,2014-08-10 16:50:00
3:00 PM,58,49,63,30.01,28,SW,5.8,,,,Clear,230,2014-08-10 17:00:00
3:50 PM,60.8,50.0,68,30.01,6.2,Variable,3.5,-,N/A,,Scattered Clouds,0,2014-08-10 17:50:00
4:00 PM,61,49,54,30.00,31,South,4.6,,,,Mostly Cloudy,190,2014-08-10 18:00:00
4:50 PM,60.8,48.2,63,30.01,6.2,East,8.1,-,N/A,,Scattered Clouds,90,2014-08-10 18:50:00
5:00 PM,60,46,49,30.00,28,East,8.1,,,,Scattered Clouds,90,2014-08-10 19:00:00
5:50 PM,60.8,48.2,63,30.01,6.2,ENE,8.1,-,N/A,,Scattered Clouds,70,2014-08-10 19:50:00
6:50 PM,59.0,44.6,59,30.01,6.2,NE,9.2,-,N/A,,Mostly Cloudy,50,2014-08-10 20:50:00
7:00 PM,59,44,46,30.01,22,ENE,10.4,,,,Partly Cloudy,60,2014-08-10 21:00:00
7:50 PM,55.4,44.6,67,30.01,6.2,ENE,9.2,-,N/A,,Mostly Cloudy,70,2014-08-10 21:50:00
8:00 PM,54,43,55,30.01,31,ENE,10.4,,,,Scattered Clouds,70,2014-08-10 22:00:00
8:50 PM,51.8,42.8,71,30.01,6.2,ENE,9.2,-,N/A,,Mostly Cloudy,70,2014-08-10 22:50:00
9:00 PM,53,42,55,30.02,31,ENE,8.1,,,,Scattered Clouds,70,2014-08-10 23:00:00
9:50 PM,50.0,42.8,76,30.01,6.2,NE,5.8,-,N/A,,Mostly Cloudy,40,2014-08-10 23:50:00
10:00 PM,50,40,60,30.03,31,NE,3.5,,,,Mostly Cloudy,40,2014-08-11 00:00:00
10:50 PM,48.2,41.0,76,30.01,6.2,NE,6.9,-,N/A,,Mostly Cloudy,50,2014-08-11 00:50:00
11:00 PM,48,39,63,30.04,31,NE,8.1,,,,Partly Cloudy,40,2014-08-11 01:00:00
11:50 PM,48.2,41.0,76,30.04,6.2,ENE,6.9,-,N/A,,Mostly Cloudy,60,2014-08-11 01:50:00